Tracking 32954 objects as of 19-Jan-2026
HD Live streaming from Space Station
objects crossing your sky now

STARLINK-31647

Track STARLINK-31647 now!
10-day predictions
STARLINK-31647 is classified as:


NORAD ID: 59389
Int'l Code: 2024-062R
Perigee: 481.5 km
Apogee: 483.2 km
Inclination: 53.2 °
Period: 94.1 minutes
Semi major axis: 6853 km
RCS: Unknown
Launch date: April 2, 2024
Source: United States (US)
Launch site: AIR FORCE WESTERN TEST RANGE (AFWTR)
Your satellite tracking list
Your tracking list is empty




NASA's NSSDC Master Catalog

Two Line Element Set (TLE):
1 59389U 24062R   26019.28698624  .00001824  00000-0  73686-4 0  9990
2 59389  53.1609 125.4527 0001276  89.9035 270.2112 15.30196549102108
Source of the keplerian elements: AFSPC